Tracking 18816 objects as of 17-October-2017
HD Live streaming from Space Station
objects crossing your sky now

FALCON 9 R/B

Track FALCON 9 R/B now!
10-day predictions


NORAD ID: 37253
Int'l Code: 2010-066K
Perigee: 303.5 km
Apogee: 10,257.1 km
Inclination: 34.5 °
Period: 208.6 minutes
Semi major axis: 11651 km
RCS: 20.0149 m2 (large)
Launch date: December 8, 2010
Source: United States (US)
Launch site: AIR FORCE EASTERN TEST RANGE (AFETR)

Note: This is a ROCKET BODY
aabbcc
Your satellite tracking list
Your tracking list is empty





NASA's NSSDC Master Catalog

Two Line Element Set (TLE):
1 37253U 10066K   17289.92851647 +.00004097 +00000-0 +43114-3 0  9998
2 37253 034.4929 169.6063 4271470 105.6246 304.4102 06.90308990168871
Source of the keplerian elements: AFSPC